FW6892 Weather Reports


time (UTC)temp
C
wind
direction
speed
KPH
gust
KPH
rain 1hr
cm
rain 24hr
cm
rain mn
cm
humidity
%
barometer
mb
20260506090508 10 265 0.0 4.8 0.00 0.00 0.00 77 1012.1
20260506090009 10 277 6.4 6.4 0.00 0.00 0.00 77 1012.1
20260506085508 10 271 3.2 12.9 0.00 0.00 0.00 76 1012.1
20260506085007 10 295 1.6 9.7 0.00 0.00 0.00 77 1012.1
20260506084508 10 265 4.8 8.0 0.00 0.00 0.00 77 1012.5
20260506084008 10 289 3.2 11.3 0.00 0.00 0.00 77 1012.5
20260506083508 10 244 6.4 9.7 0.00 0.00 0.00 77 1012.5
20260506083009 10 288 9.7 12.9 0.00 0.00 0.00 77 1012.8
20260506082508 10 335 11.3 11.3 0.00 0.00 0.00 77 1012.5
20260506081508 10 264 3.2 14.5 0.00 0.00 0.00 77 1012.5
20260506081008 10 273 6.4 6.4 0.00 0.00 0.00 77 1012.5
20260506080508 10 220 12.9 14.5 0.00 0.00 0.00 77 1012.5
20260506073507 10 237 6.4 22.5 0.00 0.00 0.00 77 1012.5
20260506073008 10 252 20.9 20.9 0.00 0.00 0.00 77 1012.5
20260506072507 10 230 8.0 11.3 0.00 0.00 0.00 77 1012.1
20260506072008 10 288 14.5 14.5 0.00 0.00 0.00 77 1012.1
20260506071508 10 229 11.3 22.5 0.00 0.00 0.00 77 1012.5
20260506071008 10 269 16.1 16.1 0.00 0.00 0.00 77 1012.1
20260506070508 10 226 6.4 20.9 0.00 0.00 0.00 77 1012.1
20260506062507 10 305 8.0 11.3 0.00 0.00 0.00 77 1011.8
20260506062008 10 265 12.9 16.1 0.00 0.00 0.00 77 1011.8
20260506061508 10 183 6.4 11.3 0.00 0.00 0.00 76 1011.5
20260506061008 11 254 3.2 14.5 0.00 0.00 0.00 76 1011.8
20260506060507 11 284 11.3 14.5 0.00 0.00 0.00 76 1011.8